Location: Cisewo
(53.3833°N, 14.9000°E)
Time: 10:28:02
(UTC+00:00)

Cosmos 1842 Rocket - Pass Details

Date: 18 April 2021
Orbit: 606 x 633 km, 82.5° (Epoch: 14 May)

Event Time Altitude Azimuth Distance (km) Brightness Sun altitude
Exits shadow 21:49:35 56° 243° (WSW) 749 3.8 -23.8°
Maximum altitude 21:50:11 63° 284° (WNW) 704 3.8 -23.8°
Drops below altitude 10° 21:54:39 10° 6° (N) 2,025 7.1 -24.0°
Sets 21:56:56 0° 10° (N) 2,940 8.1 -24.1°
